When you browse on this site, cookies collect data to enhance your experience and personalize the content and advertising you see.
Visit our Privacy Policy to learn more. By continuing to use the site, you agree to this use of cookies and data.
  • In Hungary
  • List of Countries
  • For 7 days
  • Water Temperature
  • Satellite Maps
  • Weather Map
  • News
  • Weather Widgets
  • user-avatar
    Login

    Hourly Weather Bulawayo

    Today, 18 April, Thursday

    Time Temperature Precipitation Wind Pressure Humidity
    00:00 +19°C° 0 mm 4 mps 652 mmHg 74%
    01:00 +19°C° 0 mm 4 mps 651 mmHg 77%
    02:00 +18°C° 0 mm 4 mps 651 mmHg 80%
    03:00 +18°C° 0 mm 4 mps 651 mmHg 82%
    04:00 +18°C° 0 mm 4 mps 651 mmHg 85%
    05:00 +17°C° 0 mm 4 mps 651 mmHg 87%
    06:00 +18°C° 0 mm 4 mps 652 mmHg 82%
    07:00 +19°C° 0 mm 4 mps 652 mmHg 76%
    08:00 +20°C° 0 mm 4 mps 653 mmHg 70%
    09:00 +22°C° 0 mm 5 mps 654 mmHg 57%
    10:00 +25°C° 0 mm 5 mps 654 mmHg 44%
    11:00 +28°C° 0 mm 5 mps 655 mmHg 32%
    12:00 +28°C° 0 mm 5 mps 654 mmHg 29%
    13:00 +29°C° 0 mm 4 mps 654 mmHg 26%
    14:00 +30°C° 0 mm 4 mps 653 mmHg 23%
    15:00 +29°C° 0 mm 4 mps 653 mmHg 25%
    16:00 +28°C° 0 mm 4 mps 652 mmHg 28%
    17:00 +28°C° 0 mm 3 mps 652 mmHg 30%
    18:00 +26°C° 0 mm 3 mps 652 mmHg 36%
    19:00 +24°C° 0 mm 3 mps 652 mmHg 41%
    20:00 +21°C° 0 mm 3 mps 652 mmHg 47%
    21:00 +20°C° 0 mm 3 mps 652 mmHg 54%
    22:00 +19°C° 0 mm 3 mps 652 mmHg 61%
    23:00 +18°C° 0 mm 3 mps 652 mmHg 68%

    Tomorrow, 19 April, Friday

    Time Temperature Precipitation Wind Pressure Humidity
    00:00 +18°C° 0 mm 3 mps 652 mmHg 72%
    01:00 +17°C° 0 mm 3 mps 652 mmHg 76%
    02:00 +17°C° 0 mm 3 mps 652 mmHg 81%
    03:00 +16°C° 0 mm 3 mps 652 mmHg 84%
    04:00 +16°C° 0 mm 3 mps 652 mmHg 87%
    05:00 +16°C° 0 mm 3 mps 651 mmHg 91%
    06:00 +17°C° 0 mm 3 mps 652 mmHg 81%
    07:00 +18°C° 0 mm 4 mps 653 mmHg 71%
    08:00 +19°C° 0 mm 5 mps 653 mmHg 61%
    09:00 +22°C° 0 mm 5 mps 654 mmHg 49%
    10:00 +25°C° 0 mm 5 mps 654 mmHg 38%
    11:00 +28°C° 0 mm 5 mps 655 mmHg 26%
    12:00 +28°C° 0 mm 5 mps 654 mmHg 24%
    13:00 +29°C° 0 mm 5 mps 654 mmHg 23%
    14:00 +30°C° 0 mm 5 mps 653 mmHg 21%
    15:00 +29°C° 0 mm 5 mps 653 mmHg 24%
    16:00 +28°C° 0 mm 5 mps 652 mmHg 27%
    17:00 +27°C° 0 mm 4 mps 652 mmHg 30%
    18:00 +25°C° 0 mm 4 mps 652 mmHg 36%
    19:00 +23°C° 0 mm 4 mps 652 mmHg 42%
    20:00 +21°C° 0 mm 5 mps 652 mmHg 48%
    21:00 +20°C° 0 mm 4 mps 652 mmHg 54%
    22:00 +19°C° 0 mm 4 mps 652 mmHg 59%
    23:00 +18°C° 0 mm 4 mps 653 mmHg 65%

    Day after tomorrow, 20 April, Saturday

    Time Temperature Precipitation Wind Pressure Humidity
    00:00 +18°C° 0 mm 4 mps 652 mmHg 68%
    01:00 +17°C° 0 mm 3 mps 652 mmHg 70%
    02:00 +17°C° 0 mm 3 mps 652 mmHg 73%
    03:00 +16°C° 0 mm 3 mps 651 mmHg 72%
    04:00 +16°C° 0 mm 2 mps 651 mmHg 71%
    05:00 +15°C° 0 mm 2 mps 651 mmHg 70%
    06:00 +16°C° 0 mm 2 mps 651 mmHg 65%
    07:00 +18°C° 0 mm 3 mps 652 mmHg 59%
    08:00 +19°C° 0 mm 3 mps 653 mmHg 53%
    09:00 +22°C° 0 mm 3 mps 653 mmHg 42%
    10:00 +25°C° 0 mm 3 mps 654 mmHg 32%
    11:00 +28°C° 0 mm 3 mps 654 mmHg 21%
    12:00 +29°C° 0 mm 3 mps 654 mmHg 19%
    13:00 +30°C° 0 mm 3 mps 653 mmHg 17%
    14:00 +31°C° 0 mm 3 mps 652 mmHg 14%
    15:00 +30°C° 0 mm 3 mps 652 mmHg 17%
    16:00 +29°C° 0 mm 3 mps 651 mmHg 19%
    17:00 +28°C° 0 mm 3 mps 651 mmHg 22%
    18:00 +25°C° 0 mm 3 mps 651 mmHg 27%
    19:00 +22°C° 0 mm 3 mps 651 mmHg 31%
    20:00 +20°C° 0 mm 4 mps 651 mmHg 36%
    21:00 +19°C° 0 mm 3 mps 651 mmHg 40%
    22:00 +19°C° 0 mm 3 mps 651 mmHg 44%
    23:00 +18°C° 0 mm 3 mps 651 mmHg 49%

    21 April, Sunday

    Time Temperature Precipitation Wind Pressure Humidity
    00:00 +17°C° 0 mm 3 mps 650 mmHg 52%
    01:00 +17°C° 0 mm 2 mps 650 mmHg 56%
    02:00 +16°C° 0 mm 2 mps 650 mmHg 59%
    03:00 +16°C° 0 mm 2 mps 650 mmHg 61%
    04:00 +15°C° 0 mm 2 mps 649 mmHg 62%
    05:00 +15°C° 0 mm 2 mps 649 mmHg 64%
    06:00 +17°C° 0 mm 2 mps 650 mmHg 59%
    07:00 +18°C° 0 mm 2 mps 651 mmHg 54%
    08:00 +19°C° 0 mm 3 mps 652 mmHg 49%
    09:00 +22°C° 0 mm 3 mps 652 mmHg 40%
    10:00 +25°C° 0 mm 3 mps 652 mmHg 31%
    11:00 +28°C° 0 mm 4 mps 653 mmHg 21%
    12:00 +28°C° 0 mm 4 mps 652 mmHg 21%
    13:00 +29°C° 0 mm 4 mps 652 mmHg 21%
    14:00 +29°C° 0 mm 4 mps 651 mmHg 20%
    15:00 +28°C° 0 mm 4 mps 651 mmHg 24%
    16:00 +27°C° 0 mm 4 mps 650 mmHg 27%
    17:00 +26°C° 0 mm 4 mps 650 mmHg 30%
    18:00 +25°C° 0 mm 4 mps 650 mmHg 35%
    19:00 +22°C° 0 mm 5 mps 650 mmHg 40%
    20:00 +21°C° 0 mm 5 mps 650 mmHg 46%
    21:00 +20°C° 0 mm 5 mps 650 mmHg 52%
    22:00 +19°C° 0 mm 6 mps 650 mmHg 59%
    23:00 +17°C° 0 mm 6 mps 650 mmHg 66%

    22 April, Monday

    Time Temperature Precipitation Wind Pressure Humidity
    00:00 +17°C° 0 mm 6 mps 650 mmHg 69%
    01:00 +16°C° 0 mm 6 mps 650 mmHg 73%
    02:00 +16°C° 0 mm 6 mps 649 mmHg 76%
    03:00 +15°C° 0 mm 5 mps 650 mmHg 79%
    04:00 +15°C° 0 mm 5 mps 650 mmHg 81%
    05:00 +14°C° 0 mm 5 mps 650 mmHg 84%
    06:00 +15°C° 0 mm 5 mps 650 mmHg 82%
    07:00 +15°C° 0 mm 6 mps 651 mmHg 80%
    08:00 +16°C° 0 mm 6 mps 652 mmHg 78%
    09:00 +17°C° 0 mm 6 mps 652 mmHg 70%
    10:00 +20°C° 0 mm 6 mps 652 mmHg 63%
    11:00 +22°C° 0 mm 6 mps 653 mmHg 56%
    12:00 +23°C° 0 mm 5 mps 652 mmHg 51%
    13:00 +25°C° 0 mm 5 mps 652 mmHg 46%
    14:00 +26°C° 0 mm 5 mps 651 mmHg 41%
    15:00 +26°C° 0 mm 5 mps 651 mmHg 44%
    16:00 +25°C° 0 mm 5 mps 651 mmHg 47%
    17:00 +23°C° 0 mm 5 mps 650 mmHg 49%
    18:00 +22°C° 0 mm 5 mps 651 mmHg 57%
    19:00 +20°C° 0 mm 5 mps 651 mmHg 64%
    20:00 +19°C° 0 mm 5 mps 651 mmHg 71%
    21:00 +17°C° 0 mm 5 mps 651 mmHg 76%
    22:00 +16°C° 0 mm 5 mps 650 mmHg 80%
    23:00 +15°C° 0 mm 6 mps 650 mmHg 85%

    23 April, Tuesday

    Time Temperature Precipitation Wind Pressure Humidity
    00:00 +15°C° 0 mm 5 mps 650 mmHg 84%
    01:00 +15°C° 0 mm 5 mps 650 mmHg 84%
    02:00 +14°C° 0 mm 5 mps 650 mmHg 83%
    03:00 +14°C° 0 mm 5 mps 650 mmHg 84%
    04:00 +14°C° 0 mm 6 mps 650 mmHg 84%
    05:00 +14°C° 0 mm 6 mps 651 mmHg 84%
    06:00 +15°C° 0 mm 6 mps 651 mmHg 80%
    07:00 +16°C° 0 mm 6 mps 652 mmHg 76%
    08:00 +17°C° 0 mm 6 mps 653 mmHg 71%
    09:00 +20°C° 0 mm 6 mps 653 mmHg 64%
    10:00 +21°C° 0 mm 6 mps 653 mmHg 58%
    11:00 +23°C° 0 mm 6 mps 654 mmHg 51%
    12:00 +25°C° 0 mm 5 mps 653 mmHg 48%
    13:00 +25°C° 0 mm 5 mps 653 mmHg 46%
    14:00 +26°C° 0 mm 5 mps 652 mmHg 43%
    15:00 +25°C° 0 mm 5 mps 652 mmHg 47%
    16:00 +23°C° 0 mm 5 mps 651 mmHg 50%
    17:00 +23°C° 0 mm 5 mps 651 mmHg 53%
    18:00 +21°C° 0 mm 5 mps 651 mmHg 61%
    19:00 +19°C° 0 mm 5 mps 651 mmHg 69%
    20:00 +17°C° 0 mm 5 mps 651 mmHg 77%
    21:00 +16°C° 0 mm 5 mps 651 mmHg 80%
    22:00 +16°C° 0 mm 5 mps 651 mmHg 82%
    23:00 +15°C° 0 mm 5 mps 651 mmHg 85%
    Show more